Home   Weather   London   Past weeks
Flag for United Kingdom

Past Weather in London, England, United Kingdom — Yesterday and Last 2 Weeks

Now
50 °F

Passing clouds.


Feels Like: 50 °F
Forecast: 55 / 44 °F
Wind: 2 mph from Southwest

Location: Northolt

Current Time: Oct 19, 2019 at 9:12:21 pm

Latest Report: Oct 19, 2019 at 7:50 pm


Visibility: N/A

Pressure: 29.62 "Hg

Humidity: 82%

Dew Point: 45 °F

Location of LondonLocation

Past Weather in London — Graph

°F

London Temperature Yesterday

Maximum temperature yesterday: 59 °F (at 12:50 pm)
Minimum temperature yesterday: 48 °F (at 7:50 am)
Average temperature yesterday: 53 °F

High & Low Weather Summary for the Past Weeks

 TemperatureHumidityPressure
High63 °F (Oct 6, 1:50 pm)100% (Oct 4, 9:50 pm)30.04 "Hg (Oct 4, 9:50 pm)
Low43 °F (Oct 17, 5:50 am)51% (Oct 9, 2:50 pm)29.45 "Hg (Oct 18, 4:50 am)
Average55 °F85%29.71 "Hg
* Reported Oct 4 7:50 pm — Oct 19 7:50 pm, London. Weather by CustomWeather, © 2019

Note: Actual official high and low records may vary slightly from our data, if they occured in-between our weather recording intervals... More about our weather records

Advertising

London Weather History for the Previous 24 Hours

Scroll right to see more
 ConditionsComfort  
Time TempWeatherWind HumidityBarometerVisibility
7:50 pm
Sat, Oct 19
50 °FPassing clouds.2 mph82%29.62 "HgN/A
6:50 pm52 °FClear.3 mph77%29.59 "Hg10 mi
5:50 pm55 °FPassing clouds.7 mph67%29.59 "HgN/A
5:22 pm57 °FPassing clouds.8 mph63%29.56 "HgN/A
4:50 pm57 °FPassing clouds.12 mph63%29.56 "HgN/A
3:50 pm59 °FPassing clouds.13 mph59%29.56 "HgN/A
2:50 pm57 °FScattered clouds.12 mph67%29.53 "HgN/A
1:50 pm57 °FBroken clouds.12 mph63%29.53 "HgN/A
1:20 pm59 °FScattered clouds.12 mph63%29.53 "HgN/A
12:50 pm57 °FScattered clouds.14 mph63%29.53 "HgN/A
12:23 pm59 °FScattered clouds.13 mph63%29.53 "HgN/A
11:50 am57 °FScattered clouds.13 mph67%29.53 "HgN/A
10:50 am55 °FPassing clouds.12 mph77%29.50 "HgN/A
10:21 am55 °FPassing clouds.10 mph72%29.50 "HgN/A
9:50 am52 °FPassing clouds.10 mph88%29.50 "HgN/A
8:50 am50 °FSunny.7 mph94%29.50 "Hg10 mi
8:20 am48 °FSunny.6 mph94%29.47 "Hg10 mi
7:50 am48 °FSunny.7 mph94%29.47 "Hg10 mi
7:20 am48 °FClear.7 mph94%29.47 "Hg10 mi
6:50 am48 °FClear.7 mph94%29.47 "Hg10 mi
5:50 am48 °FPassing clouds.6 mph94%29.47 "HgN/A
4:50 am50 °FPassing clouds.6 mph94%29.47 "HgN/A
3:50 am50 °FOvercast.6 mph94%29.47 "HgN/A
2:50 am50 °FOvercast.6 mph94%29.47 "HgN/A
1:50 am50 °FOvercast.8 mph88%29.47 "HgN/A
12:50 am52 °FOvercast.9 mph88%29.47 "HgN/A
11:50 pm
Fri, Oct 18
52 °FPassing clouds.10 mph88%29.50 "HgN/A
10:50 pm52 °FPassing clouds.9 mph82%29.50 "HgN/A
9:50 pm52 °FPassing clouds.10 mph88%29.50 "HgN/A
Weather by CustomWeather, © 2019

See weather overview